When you browse on this site, cookies collect data to enhance your experience and personalize the content and advertising you see.
Visit our Privacy Policy to learn more. By continuing to use the site, you agree to this use of cookies and data.
  • In Hungary
  • List of Countries
  • For 7 days
  • Water Temperature
  • Satellite Maps
  • Weather Map
  • News
  • Weather Widgets
  • user-avatar
    Login

    Hourly Weather Xanthi

    Today, 15 December, Saturday

    Time Temperature Precipitation Wind Pressure Humidity
    00:00 +7°C° 0 mm 2 mps 744 mmHg 90%
    01:00 +7°C° 0 mm 2 mps 744 mmHg 91%
    02:00 +7°C° 0 mm 2 mps 743 mmHg 93%
    03:00 +8°C° 0 mm 2 mps 743 mmHg 93%
    04:00 +8°C° 0 mm 2 mps 743 mmHg 94%
    05:00 +8°C° 0 mm 2 mps 743 mmHg 94%
    06:00 +8°C° 0 mm 2 mps 743 mmHg 94%
    07:00 +8°C° 0 mm 2 mps 743 mmHg 94%
    08:00 +9°C° 0 mm 2 mps 743 mmHg 94%
    09:00 +10°C° 0.2 mm 3 mps 743 mmHg 91%
    10:00 +11°C° 0.2 mm 3 mps 743 mmHg 89%
    11:00 +12°C° 0.2 mm 3 mps 743 mmHg 87%
    12:00 +12°C° 0.6 mm 4 mps 742 mmHg 85%
    13:00 +13°C° 0.6 mm 4 mps 742 mmHg 83%
    14:00 +13°C° 0.6 mm 4 mps 742 mmHg 81%
    15:00 +13°C° 1 mm 4 mps 742 mmHg 85%
    16:00 +12°C° 1 mm 4 mps 742 mmHg 88%
    17:00 +11°C° 1 mm 4 mps 742 mmHg 92%
    18:00 +11°C° 1.2 mm 4 mps 742 mmHg 93%
    19:00 +11°C° 1.2 mm 4 mps 742 mmHg 94%
    20:00 +11°C° 1.2 mm 3 mps 741 mmHg 95%
    21:00 +11°C° 1.2 mm 3 mps 741 mmHg 95%
    22:00 +11°C° 1.2 mm 3 mps 741 mmHg 95%
    23:00 +10°C° 1.2 mm 3 mps 741 mmHg 95%

    Tomorrow, 16 December, Sunday

    Time Temperature Precipitation Wind Pressure Humidity
    00:00 +10°C° 0.8 mm 3 mps 741 mmHg 95%
    01:00 +10°C° 0.8 mm 3 mps 741 mmHg 96%
    02:00 +10°C° 0.8 mm 3 mps 741 mmHg 96%
    03:00 +10°C° 0.8 mm 3 mps 741 mmHg 96%
    04:00 +10°C° 0.8 mm 3 mps 740 mmHg 95%
    05:00 +10°C° 0.8 mm 3 mps 740 mmHg 95%
    06:00 +10°C° 0.7 mm 3 mps 740 mmHg 95%
    07:00 +10°C° 0.7 mm 3 mps 740 mmHg 95%
    08:00 +10°C° 0.7 mm 3 mps 740 mmHg 95%
    09:00 +10°C° 0.5 mm 3 mps 740 mmHg 93%
    10:00 +11°C° 0.5 mm 3 mps 741 mmHg 90%
    11:00 +12°C° 0.5 mm 3 mps 741 mmHg 88%
    12:00 +12°C° 0.5 mm 3 mps 741 mmHg 86%
    13:00 +12°C° 0.5 mm 3 mps 740 mmHg 85%
    14:00 +12°C° 0.5 mm 3 mps 740 mmHg 83%
    15:00 +13°C° 0.4 mm 2 mps 741 mmHg 86%
    16:00 +12°C° 0.4 mm 2 mps 741 mmHg 89%
    17:00 +12°C° 0.4 mm 2 mps 741 mmHg 92%
    18:00 +12°C° 0.2 mm 2 mps 741 mmHg 92%
    19:00 +10°C° 0.2 mm 2 mps 742 mmHg 92%
    20:00 +10°C° 0.2 mm 2 mps 742 mmHg 92%
    21:00 +10°C° 0.1 mm 2 mps 743 mmHg 92%
    22:00 +10°C° 0.1 mm 2 mps 743 mmHg 93%
    23:00 +10°C° 0.1 mm 2 mps 743 mmHg 93%

    Day after tomorrow, 17 December, Monday

    Time Temperature Precipitation Wind Pressure Humidity
    00:00 +10°C° 0 mm 2 mps 743 mmHg 93%
    01:00 +9°C° 0 mm 2 mps 743 mmHg 92%
    02:00 +9°C° 0 mm 2 mps 743 mmHg 92%
    03:00 +9°C° 0 mm 2 mps 743 mmHg 92%
    04:00 +9°C° 0 mm 2 mps 743 mmHg 91%
    05:00 +9°C° 0 mm 2 mps 743 mmHg 91%
    06:00 +9°C° 0 mm 2 mps 743 mmHg 91%
    07:00 +9°C° 0 mm 2 mps 744 mmHg 92%
    08:00 +8°C° 0 mm 2 mps 744 mmHg 92%
    09:00 +9°C° 0 mm 2 mps 744 mmHg 89%
    10:00 +10°C° 0 mm 2 mps 744 mmHg 85%
    11:00 +12°C° 0 mm 1 mps 744 mmHg 82%
    12:00 +12°C° 0.1 mm 2 mps 743 mmHg 82%
    13:00 +12°C° 0.1 mm 2 mps 743 mmHg 83%
    14:00 +12°C° 0.1 mm 2 mps 742 mmHg 83%
    15:00 +11°C° 0.3 mm 1 mps 742 mmHg 86%
    16:00 +11°C° 0.3 mm 1 mps 742 mmHg 89%
    17:00 +11°C° 0.3 mm 1 mps 742 mmHg 92%
    18:00 +10°C° 0.5 mm 1 mps 743 mmHg 92%
    19:00 +10°C° 0.5 mm 1 mps 743 mmHg 93%
    20:00 +10°C° 0.5 mm 1 mps 743 mmHg 94%
    21:00 +10°C° 0.2 mm 1 mps 743 mmHg 94%
    22:00 +10°C° 0.2 mm 1 mps 743 mmHg 94%
    23:00 +10°C° 0.2 mm 1 mps 743 mmHg 94%

    18 December, Tuesday

    Time Temperature Precipitation Wind Pressure Humidity
    00:00 +10°C° 0.1 mm 1 mps 743 mmHg 94%
    01:00 +9°C° 0.1 mm 1 mps 743 mmHg 94%
    02:00 +9°C° 0.1 mm 1 mps 743 mmHg 93%
    03:00 +8°C° 0.1 mm 2 mps 742 mmHg 93%
    04:00 +8°C° 0.1 mm 2 mps 742 mmHg 93%
    05:00 +8°C° 0.1 mm 2 mps 742 mmHg 93%
    06:00 +8°C° 0.1 mm 3 mps 742 mmHg 93%
    07:00 +8°C° 0.1 mm 3 mps 742 mmHg 93%
    08:00 +8°C° 0.1 mm 3 mps 742 mmHg 94%
    09:00 +9°C° 0.3 mm 3 mps 742 mmHg 91%
    10:00 +10°C° 0.3 mm 4 mps 742 mmHg 89%
    11:00 +10°C° 0.3 mm 4 mps 742 mmHg 86%
    12:00 +10°C° 0.5 mm 4 mps 741 mmHg 87%
    13:00 +10°C° 0.5 mm 4 mps 741 mmHg 87%
    14:00 +10°C° 0.5 mm 4 mps 741 mmHg 87%
    15:00 +8°C° 0.5 mm 5 mps 741 mmHg 87%
    16:00 +8°C° 0.5 mm 5 mps 741 mmHg 87%
    17:00 +8°C° 0.5 mm 6 mps 741 mmHg 86%
    18:00 +7°C° 0.2 mm 6 mps 742 mmHg 85%
    19:00 +6°C° 0.2 mm 7 mps 742 mmHg 84%
    20:00 +6°C° 0.2 mm 7 mps 743 mmHg 84%
    21:00 +6°C° 0.2 mm 7 mps 743 mmHg 83%
    22:00 +5°C° 0.2 mm 7 mps 743 mmHg 82%
    23:00 +5°C° 0.2 mm 7 mps 744 mmHg 82%

    19 December, Wednesday

    Time Temperature Precipitation Wind Pressure Humidity
    00:00 +5°C° 0 mm 7 mps 744 mmHg 82%
    01:00 +5°C° 0 mm 6 mps 744 mmHg 82%
    02:00 +5°C° 0 mm 6 mps 744 mmHg 82%
    03:00 +5°C° 0 mm 5 mps 745 mmHg 82%
    04:00 +5°C° 0 mm 5 mps 745 mmHg 82%
    05:00 +5°C° 0 mm 5 mps 745 mmHg 82%
    06:00 +4°C° 0 mm 4 mps 746 mmHg 82%
    07:00 +4°C° 0 mm 4 mps 746 mmHg 82%
    08:00 +3°C° 0 mm 3 mps 746 mmHg 82%
    09:00 +5°C° 0 mm 3 mps 747 mmHg 77%
    10:00 +7°C° 0 mm 2 mps 747 mmHg 71%
    11:00 +9°C° 0 mm 2 mps 747 mmHg 66%
    12:00 +9°C° 0 mm 2 mps 747 mmHg 65%
    13:00 +9°C° 0 mm 2 mps 747 mmHg 65%
    14:00 +10°C° 0 mm 2 mps 746 mmHg 64%
    15:00 +9°C° 0 mm 2 mps 746 mmHg 69%
    16:00 +8°C° 0 mm 2 mps 746 mmHg 74%
    17:00 +8°C° 0 mm 1 mps 746 mmHg 79%
    18:00 +8°C° 0 mm 1 mps 747 mmHg 81%
    19:00 +7°C° 0 mm 1 mps 747 mmHg 83%
    20:00 +7°C° 0 mm 1 mps 747 mmHg 85%
    21:00 +7°C° 0 mm 1 mps 747 mmHg 86%
    22:00 +7°C° 0 mm 1 mps 747 mmHg 87%
    23:00 +7°C° 0 mm 1 mps 747 mmHg 87%

    20 December, Thursday

    Time Temperature Precipitation Wind Pressure Humidity
    00:00 +6°C° 0 mm 1 mps 747 mmHg 88%
    01:00 +6°C° 0 mm 1 mps 747 mmHg 88%
    02:00 +6°C° 0 mm 1 mps 747 mmHg 89%
    03:00 +6°C° 0 mm 1 mps 747 mmHg 89%
    04:00 +6°C° 0 mm 1 mps 747 mmHg 88%
    05:00 +6°C° 0 mm 1 mps 747 mmHg 88%
    06:00 +6°C° 0 mm 1 mps 747 mmHg 88%
    07:00 +5°C° 0 mm 1 mps 748 mmHg 87%
    08:00 +5°C° 0 mm 1 mps 748 mmHg 87%
    09:00 +6°C° 0 mm 2 mps 748 mmHg 83%
    10:00 +7°C° 0 mm 2 mps 748 mmHg 79%
    11:00 +8°C° 0 mm 2 mps 748 mmHg 75%
    12:00 +9°C° 0 mm 2 mps 748 mmHg 75%
    13:00 +9°C° 0 mm 2 mps 748 mmHg 75%
    14:00 +9°C° 0 mm 2 mps 748 mmHg 75%
    15:00 +9°C° 0 mm 2 mps 748 mmHg 80%
    16:00 +8°C° 0 mm 2 mps 748 mmHg 85%
    17:00 +7°C° 0 mm 2 mps 748 mmHg 90%
    18:00 +7°C° 0 mm 2 mps 748 mmHg 90%
    19:00 +7°C° 0 mm 2 mps 748 mmHg 91%
    20:00 +7°C° 0 mm 2 mps 748 mmHg 92%
    21:00 +6°C° 0 mm 2 mps 748 mmHg 92%
    22:00 +6°C° 0 mm 2 mps 748 mmHg 92%
    23:00 +6°C° 0 mm 2 mps 748 mmHg 93%
    Show more